Wetterstats.de || Aktuelle Messwerte || Aktuelle Wetterkarten NEU! || Radar / Satellit NEU! || Wetterarchiv || Langzeitwerte NEU! || Klim. Kenntage || Met. Ereignisse || Agrarwerte || Echtzeitwerte

Monatsübersicht für Juni 2020 Diagramm
 
Wetter Information zur Wetteranzeige
Zeitraffer
Tageslänge (hh:mm)
Höchsttemperatur in °C
Uhrzeit
Tiefsttemperatur in °C
Uhrzeit
Luftfeuchte (max., in %)
Uhrzeit
Luftfeuchte (min., in %)
Uhrzeit
Luftdruck (max., in hPa)
Uhrzeit
Luftdruck (min., in hPa)
Uhrzeit
Luftdruck (Ø, in hPa)
Regenrate (max, mm/h)
Uhrzeit
Niederschlag in mm
Verdunstung in mm
Solar in W/m² (Ø)
Solar in W/m² (max.)
UV-Index (max.)
Sonnenscheindauer (hh:mm)
Windrichtung (Ø)
Windstärke (Ø in km/h)
Windstärke (Ø in bft)
Windböe (max., in km/h)
Uhrzeit
Windböe (max., in bft)
Uhrzeit
Taupunkt (max., in °C)
Uhrzeit
Taupunkt (min., in °C)
Uhrzeit
Windchill (min., in °C)
Uhrzeit
Gewitterindex (max.)
Uhrzeit
Waldbrandindex (max.)
Uhrzeit
Graslandfeuerindex (max.)
Uhrzeit
Staubsturm-Index (max.)
Uhrzeit
01
Zeitraffer
16:35
25.4
14:55 Uhr
9.4
04:55 Uhr

84
05:10 Uhr
26
15:20 Uhr
1024.8
10:40 Uhr

1021.8
19:20 Uhr
1023.3
0,000
00:00 Uhr
0,000
6.071
451
824
13:10 Uhr
6.8
13:00 Uhr

13:37:00
8,5
2
33,8
19:25 Uhr

5
9.3
09:45 Uhr
4.3
15:20 Uhr
7.5
03:15 Uhr
0
00:00 Uhr
5.9
14:40 Uhr
5.9
00:00 Uhr
3.7
19:30 Uhr
02
Zeitraffer
16:37
28.3
12:25 Uhr
10.9
05:05 Uhr

74
05:20 Uhr
30
15:00 Uhr
1022.4
00:30 Uhr

1011.4
23:55 Uhr
1017.3
0,000
00:00 Uhr
0,000
5.842
372
981
13:30 Uhr
6.7
12:55 Uhr

10:14:00
5,7
1
29,0
15:25 Uhr

4
10.3
14:25 Uhr
5.9
03:50 Uhr
10.9
05:05 Uhr
2
12:25 Uhr
5.9
00:00 Uhr
5.9
00:00 Uhr
3.1
16:05 Uhr
03
Zeitraffer
16:39
27.8
15:10 Uhr
12.2
05:20 Uhr

81
05:20 Uhr
27
16:35 Uhr
1011.4
00:00 Uhr

1001.5
23:40 Uhr
1006.5
0,000
00:00 Uhr
0,000
5.563
440
823
13:15 Uhr
6.5
13:15 Uhr

12:01:00
4,1
1
24,1
16:00 Uhr

4
10.1
00:35 Uhr
5.8
19:40 Uhr
12.2
05:20 Uhr
2
00:00 Uhr
5.9
00:00 Uhr
5.9
00:00 Uhr
2.7
14:45 Uhr
04
Zeitraffer
16:41
26.3
14:15 Uhr
12.7
04:45 Uhr

93
23:35 Uhr
32
14:00 Uhr
1001.5
00:00 Uhr

992.0
21:25 Uhr
996.0
2,400
19:25 Uhr
1,000
3.607
267
844
13:50 Uhr
5.8
13:50 Uhr

05:18:00
5,7
1
33,8
12:55 Uhr

5
15.1
22:50 Uhr
6.2
01:05 Uhr
12.7
04:45 Uhr
9
22:20 Uhr
5.9
00:00 Uhr
5.9
00:00 Uhr
3.7
12:55 Uhr
05
Zeitraffer
16:43
17.9
17:00 Uhr
11.2
09:00 Uhr

94
00:10 Uhr
43
18:35 Uhr
996.7
12:00 Uhr

992.2
00:00 Uhr
994.6
4,800
05:10 Uhr
2,000
2.540
212
1025
14:00 Uhr
6.6
13:55 Uhr

02:39:00
7,6
2
41,8
21:45 Uhr

6
15.1
00:10 Uhr
4.9
18:35 Uhr
7.2
09:20 Uhr
9
00:00 Uhr
5.9
00:00 Uhr
5.9
00:00 Uhr
3.8
21:50 Uhr
06
Zeitraffer
16:44
19.5
17:35 Uhr
8.3
05:15 Uhr

83
00:30 Uhr
41
13:40 Uhr
1005.2
23:35 Uhr

995.3
00:00 Uhr
1001.4
2,400
07:50 Uhr
0,200
4.292
342
1046
14:05 Uhr
6.8
13:05 Uhr

07:12:00
9,6
2
38,6
16:40 Uhr

5
9.8
19:35 Uhr
3.8
12:20 Uhr
5.0
01:45 Uhr
2
00:00 Uhr
5.9
12:15 Uhr
5.9
00:00 Uhr
3.8
01:30 Uhr
07
Zeitraffer
16:45
20.9
13:15 Uhr
7.7
04:15 Uhr

91
04:25 Uhr
44
15:35 Uhr
1010.3
23:30 Uhr

1005.2
04:25 Uhr
1007.5
0,000
00:00 Uhr
0,000
2.286
206
1042
13:00 Uhr
6.6
12:55 Uhr

02:15:00
3,3
1
24,1
13:20 Uhr

4
12.6
11:40 Uhr
6.2
03:55 Uhr
7.7
04:15 Uhr
4
12:30 Uhr
5.9
12:10 Uhr
5.9
00:00 Uhr
2.7
14:15 Uhr
08
Zeitraffer
16:46
23.7
16:05 Uhr
10.1
05:00 Uhr

81
05:35 Uhr
35
16:05 Uhr
1015.3
23:00 Uhr

1010.4
00:00 Uhr
1013.1
0,000
00:00 Uhr
0,000
4.140
349
1035
14:20 Uhr
7.1
13:30 Uhr

08:03:00
4,0
1
20,9
01:20 Uhr

4
9.9
00:05 Uhr
6.0
16:00 Uhr
10.1
05:00 Uhr
2
00:00 Uhr
5.9
00:00 Uhr
5.9
00:00 Uhr
2.5
13:40 Uhr
09
Zeitraffer
16:48
24.9
11:40 Uhr
13.9
05:40 Uhr

74
05:35 Uhr
37
11:50 Uhr
1017.1
10:15 Uhr

1015.0
03:20 Uhr
1015.9
0,000
00:00 Uhr
0,000
3.327
226
946
11:40 Uhr
6.2
11:35 Uhr

05:21:00
5,9
1
30,6
23:15 Uhr

5
11.6
08:30 Uhr
7.0
19:20 Uhr
13.2
05:40 Uhr
3
08:30 Uhr
5.9
00:00 Uhr
5.9
00:00 Uhr
3.1
23:45 Uhr
10
Zeitraffer
16:49
24.6
14:10 Uhr
12.3
04:45 Uhr

81
05:05 Uhr
35
14:05 Uhr
1016.4
00:00 Uhr

1012.0
23:55 Uhr
1014.2
0,000
00:00 Uhr
0,000
4.166
309
1002
14:25 Uhr
6.8
12:35 Uhr

05:08:00
7,5
2
27,4
15:10 Uhr

4
13.0
23:20 Uhr
7.1
14:05 Uhr
10.5
06:50 Uhr
5
22:25 Uhr
5.9
00:00 Uhr
5.9
00:00 Uhr
3.2
17:35 Uhr
11
Zeitraffer
16:50
22.6
18:45 Uhr
14.7
03:20 Uhr

95
06:00 Uhr
72
18:45 Uhr
1012.0
00:00 Uhr

1010.3
19:00 Uhr
1011.0
4,800
06:10 Uhr
1,800
1.245
115
446
18:05 Uhr
3.1
15:10 Uhr

01:22:00
4,3
1
22,5
00:10 Uhr

4
17.9
18:10 Uhr
13.0
00:10 Uhr
13.1
02:35 Uhr
10
22:20 Uhr
5.9
00:00 Uhr
5.9
00:00 Uhr
2.6
00:00 Uhr
12
Zeitraffer
16:51
28.7
17:20 Uhr
13.9
06:15 Uhr

97
07:10 Uhr
48
17:20 Uhr
1012.7
09:35 Uhr

1009.8
18:35 Uhr
1011.3
0,000
00:00 Uhr
0,000
3.607
283
965
13:10 Uhr
6.5
13:05 Uhr

06:21:00
6,2
1
22,5
16:25 Uhr

4
18.6
11:45 Uhr
13.3
06:15 Uhr
13.8
02:05 Uhr
12
22:20 Uhr
5.9
00:00 Uhr
5.9
00:00 Uhr
2.6
19:40 Uhr
13
Zeitraffer
16:52
35.4
13:30 Uhr
18.4
04:55 Uhr

94
20:40 Uhr
42
13:30 Uhr
1013.8
18:45 Uhr

1009.2
15:40 Uhr
1011.0
12,000
17:15 Uhr
10,600
3.073
298
903
13:40 Uhr
6.5
13:10 Uhr

04:32:00
6,3
1
46,7
17:05 Uhr

6
21.6
12:45 Uhr
15.8
14:55 Uhr
16.8
18:10 Uhr
13
00:00 Uhr
5.9
00:00 Uhr
5.9
00:00 Uhr
4.2
17:05 Uhr
14
Zeitraffer
16:53
27.9
15:15 Uhr
17.8
01:00 Uhr

94
02:15 Uhr
41
19:00 Uhr
1013.2
23:55 Uhr

1010.6
00:00 Uhr
1012.1
2,400
09:45 Uhr
0,200
3.759
301
1025
14:25 Uhr
7.2
14:05 Uhr

06:15:00
6,9
1
27,4
12:20 Uhr

4
18.1
11:25 Uhr
11.8
19:00 Uhr
15.3
01:35 Uhr
12
03:05 Uhr
0.0
00:00 Uhr
3.3
17:45 Uhr
0.0
00:00 Uhr
15
Zeitraffer
16:53
28.4
15:50 Uhr
14.1
04:20 Uhr

83
04:20 Uhr
31
15:50 Uhr
1015.9
23:55 Uhr

1012.9
01:00 Uhr
1014.4
0,000
00:00 Uhr
0,000
5.563
419
924
13:20 Uhr
7.6
13:20 Uhr

11:34:00
6,2
1
25,7
10:15 Uhr

4
14.0
09:15 Uhr
8.7
16:05 Uhr
14.1
04:20 Uhr
6
00:00 Uhr
2.2
16:05 Uhr
5.9
10:00 Uhr
1.9
16:35 Uhr


 
Wetter Information zur Wetteranzeige
Zeitraffer
Tageslänge (hh:mm)
Höchsttemperatur in °C
Uhrzeit
Tiefsttemperatur in °C
Uhrzeit
Luftfeuchte (max., in %)
Uhrzeit
Luftfeuchte (min., in %)
Uhrzeit
Luftdruck (max., in hPa)
Uhrzeit
Luftdruck (min., in hPa)
Uhrzeit
Luftdruck (Ø, in hPa)
Regenrate (max, mm/h)
Uhrzeit
Niederschlag in mm
Verdunstung in mm
Solar in W/m² (Ø)
Solar in W/m² (max.)
UV-Index (max.)
Sonnenscheindauer (hh:mm)
Windrichtung (Ø)
Windstärke (Ø in km/h)
Windstärke (Ø in bft)
Windböe (max., in km/h)
Uhrzeit
Windböe (max., in bft)
Uhrzeit
Taupunkt (max., in °C)
Uhrzeit
Taupunkt (min., in °C)
Uhrzeit
Windchill (min., in °C)
Uhrzeit
Gewitterindex (max.)
Uhrzeit
Waldbrandindex (max.)
Uhrzeit
Graslandfeuerindex (max.)
Uhrzeit
Staubsturm-Index (max.)
Uhrzeit
16
Zeitraffer
16:54
30.4
16:50 Uhr
13.1
05:00 Uhr

87
04:30 Uhr
33
13:20 Uhr
1015.9
00:00 Uhr

1012.6
19:05 Uhr
1014.4
0,000
00:00 Uhr
0,000
5.105
410
965
12:25 Uhr
7.3
13:00 Uhr

11:36:00
3,0
1
19,3
12:40 Uhr

3
13.7
07:15 Uhr
10.1
14:00 Uhr
13.1
05:00 Uhr
7
22:20 Uhr
2.5
17:20 Uhr
5.9
08:05 Uhr
2.1
17:35 Uhr
17
Zeitraffer
16:54
31.7
15:30 Uhr
15.2
04:20 Uhr

84
04:00 Uhr
30
15:55 Uhr
1013.4
00:15 Uhr

1009.3
19:20 Uhr
1011.5
0,000
00:00 Uhr
0,000
5.283
388
1055
13:05 Uhr
6.9
13:05 Uhr

11:06:00
4,0
1
22,5
16:50 Uhr

4
15.1
08:35 Uhr
11.4
15:10 Uhr
15.2
04:20 Uhr
7
00:00 Uhr
5.9
12:35 Uhr
5.9
00:00 Uhr
2.4
16:55 Uhr
18
Zeitraffer
16:54
29.2
16:05 Uhr
19.2
04:50 Uhr

70
07:45 Uhr
42
15:05 Uhr
1010.8
22:10 Uhr

1008.8
04:10 Uhr
1009.7
0,000
00:00 Uhr
0,000
4.902
351
1055
12:30 Uhr
6.9
12:30 Uhr

09:41:00
6,1
1
24,1
13:25 Uhr

4
17.2
10:40 Uhr
12.7
01:05 Uhr
18.8
06:50 Uhr
8
10:40 Uhr
5.9
14:35 Uhr
5.9
00:00 Uhr
2.8
14:20 Uhr
19
Zeitraffer
16:55
22.0
14:45 Uhr
16.9
05:15 Uhr

89
17:30 Uhr
65
14:45 Uhr
1014.7
23:45 Uhr

1010.7
00:00 Uhr
1012.1
2,400
15:40 Uhr
0,200
2.007
147
578
13:55 Uhr
5.9
14:15 Uhr

00:42:00
6,1
1
22,5
10:10 Uhr

4
16.4
17:30 Uhr
13.3
00:15 Uhr
15.8
23:45 Uhr
9
22:25 Uhr
5.3
14:50 Uhr
5.9
00:00 Uhr
2.7
13:40 Uhr
20
Zeitraffer
16:55
19.6
11:25 Uhr
16.4
06:00 Uhr

92
02:25 Uhr
63
11:05 Uhr
1018.0
22:05 Uhr

1014.1
02:55 Uhr
1016.2
2,400
16:10 Uhr
0,800
2.083
145
457
10:25 Uhr
3.6
11:25 Uhr

00:11:00
11,6
2
48,3
12:50 Uhr

6
15.6
02:45 Uhr
11.5
12:50 Uhr
11.9
06:25 Uhr
9
00:00 Uhr
4.9
11:35 Uhr
5.9
00:00 Uhr
4.5
12:55 Uhr
21
Zeitraffer
16:55
25.2
17:15 Uhr
14.5
04:30 Uhr

93
04:25 Uhr
44
19:30 Uhr
1019.5
22:50 Uhr

1017.4
04:45 Uhr
1018.3
2,400
01:20 Uhr
0,400
3.810
325
1155
13:25 Uhr
8.1
13:10 Uhr

06:37:00
9,0
2
35,4
00:45 Uhr

5
15.3
15:15 Uhr
10.6
22:55 Uhr
11.0
05:30 Uhr
6
11:10 Uhr
4.7
19:30 Uhr
5.9
10:25 Uhr
3.7
14:00 Uhr
22
Zeitraffer
16:54
26.7
15:35 Uhr
12.4
05:05 Uhr

87
05:05 Uhr
38
13:40 Uhr
1024.0
23:50 Uhr

1018.8
03:35 Uhr
1021.0
0,000
00:00 Uhr
0,000
5.563
405
1075
14:20 Uhr
7.3
14:10 Uhr

11:18:00
6,2
1
37,0
13:30 Uhr

5
14.0
12:20 Uhr
8.2
22:30 Uhr
12.4
05:05 Uhr
5
10:50 Uhr
5.1
16:05 Uhr
5.9
00:00 Uhr
3.8
14:15 Uhr
23
Zeitraffer
16:54
26.4
16:15 Uhr
14.8
04:40 Uhr

71
04:40 Uhr
27
16:15 Uhr
1025.6
10:35 Uhr

1023.9
00:05 Uhr
1024.8
0,000
00:00 Uhr
0,000
6.121
455
830
13:05 Uhr
7.0
12:50 Uhr

13:53:00
6,2
1
29,0
13:05 Uhr

4
10.5
07:55 Uhr
5.1
12:50 Uhr
14.8
04:40 Uhr
2
00:05 Uhr
5.9
15:00 Uhr
5.9
00:00 Uhr
3.2
13:10 Uhr
24
Zeitraffer
16:54
26.1
18:35 Uhr
13.6
04:25 Uhr

80
05:10 Uhr
47
10:25 Uhr
1025.6
00:05 Uhr

1023.4
20:50 Uhr
1024.8
0,000
00:00 Uhr
0,000
4.140
298
918
12:05 Uhr
7.3
12:00 Uhr

07:34:00
5,2
1
25,7
12:25 Uhr

4
15.2
17:05 Uhr
9.6
00:35 Uhr
13.6
04:25 Uhr
8
22:25 Uhr
5.9
00:00 Uhr
5.9
00:00 Uhr
2.9
11:30 Uhr
25
Zeitraffer
16:53
29.1
16:30 Uhr
19.5
05:55 Uhr

78
04:35 Uhr
38
16:55 Uhr
1023.4
00:00 Uhr

1020.0
19:35 Uhr
1021.6
0,000
00:00 Uhr
0,000
5.384
336
950
11:45 Uhr
7.0
12:55 Uhr

07:26:00
8,5
2
32,2
18:25 Uhr

5
18.1
10:55 Uhr
12.2
18:25 Uhr
18.0
04:15 Uhr
10
02:25 Uhr
5.9
00:00 Uhr
5.9
00:00 Uhr
3.6
18:30 Uhr
26
Zeitraffer
16:53
31.2
12:45 Uhr
17.9
03:10 Uhr

92
15:25 Uhr
42
12:45 Uhr
1020.3
00:00 Uhr

1011.8
23:45 Uhr
1016.2
31,200
14:15 Uhr
8,600
3.861
285
932
12:40 Uhr
6.6
12:40 Uhr

09:20:00
5,0
1
33,8
13:25 Uhr

5
20.5
16:25 Uhr
15.1
03:05 Uhr
17.9
03:10 Uhr
12
16:25 Uhr
5.9
00:00 Uhr
5.9
00:00 Uhr
3.2
13:30 Uhr
27
Zeitraffer
16:52
33.2
14:10 Uhr
16.4
05:00 Uhr

93
05:05 Uhr
35
16:20 Uhr
1011.9
00:00 Uhr

1008.6
18:20 Uhr
1010.3
0,000
00:00 Uhr
0,000
5.105
380
864
14:00 Uhr
7.1
12:35 Uhr

10:24:00
4,0
1
24,1
18:50 Uhr

4
17.7
23:50 Uhr
14.0
16:35 Uhr
16.4
05:00 Uhr
12
22:30 Uhr
2.4
16:35 Uhr
5.9
00:00 Uhr
0.0
00:00 Uhr
28
Zeitraffer
16:52
28.1
12:05 Uhr
18.8
23:55 Uhr

91
15:00 Uhr
49
12:10 Uhr
1014.3
21:40 Uhr

1010.3
00:00 Uhr
1012.2
2,400
14:05 Uhr
1,800
3.378
254
838
11:50 Uhr
6.5
12:00 Uhr

05:42:00
5,1
1
30,6
13:20 Uhr

5
19.8
15:40 Uhr
13.1
22:45 Uhr
18.8
23:55 Uhr
12
00:00 Uhr
4.7
12:15 Uhr
5.9
00:00 Uhr
3.4
13:20 Uhr
29
Zeitraffer
16:51
25.3
13:20 Uhr
15.3
23:50 Uhr

83
06:35 Uhr
41
13:20 Uhr
1013.7
00:10 Uhr

1009.3
20:50 Uhr
1011.7
4,800
15:40 Uhr
0,800
3.658
307
1032
13:20 Uhr
7.3
13:05 Uhr

06:22:00
3,4
1
38,6
15:10 Uhr

5
15.8
16:00 Uhr
10.2
17:00 Uhr
14.8
15:15 Uhr
7
00:00 Uhr
2.9
14:05 Uhr
5.9
00:00 Uhr
2.7
15:15 Uhr
30
Zeitraffer
16:50
24.4
16:05 Uhr
13.7
02:25 Uhr

84
02:30 Uhr
34
16:20 Uhr
1009.9
00:00 Uhr

1007.8
19:45 Uhr
1008.6
0,000
00:00 Uhr
0,000
5.207
374
1015
14:25 Uhr
7.8
13:45 Uhr

08:42:00
8,5
2
37,0
09:25 Uhr

5
11.5
00:00 Uhr
7.1
15:30 Uhr
13.7
02:25 Uhr
4
00:00 Uhr
5.9
16:00 Uhr
5.9
00:00 Uhr
4.0
15:10 Uhr
Stationsstandorte || Wetterblog || Wissenswertes || Downloads || Seitenhistorie || Partner || Impressum / Datenschutz